TimeCDT,TemperatureF,Dew PointF,Humidity,Sea Level PressureIn,VisibilityMPH,Wind Direction,Wind SpeedMPH,Gust SpeedMPH,PrecipitationIn,Events,Conditions,WindDirDegrees,DateUTC
12:54 AM,55.0,53.1,93,29.99,10.0,Calm,Calm,-,0.05,Rain,Light Rain,0,2013-09-15 05:54:00
1:54 AM,55.0,53.1,93,30.00,10.0,South,3.5,-,0.01,Rain,Light Rain,170,2013-09-15 06:54:00
2:54 AM,55.0,52.0,89,29.98,10.0,SSE,5.8,-,0.00,,Overcast,160,2013-09-15 07:54:00
3:54 AM,54.0,52.0,93,29.97,6.0,SSE,5.8,-,0.00,Rain,Light Rain,160,2013-09-15 08:54:00
3:58 AM,53.6,51.8,94,29.96,5.0,SSE,6.9,-,0.00,Rain,Light Rain,160,2013-09-15 08:58:00
4:26 AM,53.6,51.8,94,29.95,5.0,SSE,9.2,-,0.00,Rain,Light Rain,160,2013-09-15 09:26:00
4:54 AM,54.0,52.0,93,29.95,4.0,South,6.9,-,0.00,Rain,Light Rain,170,2013-09-15 09:54:00
5:19 AM,53.6,51.8,94,29.95,2.5,SE,4.6,-,0.00,Rain,Light Rain,140,2013-09-15 10:19:00
5:27 AM,53.6,51.8,94,29.95,2.5,SE,4.6,-,0.01,Rain,Light Rain,130,2013-09-15 10:27:00
5:54 AM,54.0,52.0,93,29.96,3.0,SE,4.6,-,0.02,Rain,Light Rain,130,2013-09-15 10:54:00
6:01 AM,53.6,53.6,100,29.97,2.5,ESE,3.5,-,0.00,Rain,Light Rain,120,2013-09-15 11:01:00
6:33 AM,53.6,51.8,94,29.97,3.0,ENE,4.6,-,0.09,Rain,Rain,70,2013-09-15 11:33:00
6:40 AM,53.6,51.8,94,29.97,4.0,ENE,5.8,-,0.10,Rain,Rain,70,2013-09-15 11:40:00
6:54 AM,54.0,53.1,97,29.98,4.0,NE,4.6,-,0.13,Rain,Rain,50,2013-09-15 11:54:00
7:05 AM,53.6,53.6,100,29.97,5.0,ENE,8.1,-,0.02,Rain,Rain,60,2013-09-15 12:05:00
7:43 AM,53.6,51.8,94,29.98,3.0,ENE,6.9,-,0.12,Rain,Heavy Rain,70,2013-09-15 12:43:00
7:54 AM,54.0,52.0,93,29.99,4.0,ENE,8.1,-,0.13,Rain,Rain,70,2013-09-15 12:54:00
8:54 AM,55.0,53.1,93,29.99,8.0,East,6.9,-,0.05,Rain,Light Rain,90,2013-09-15 13:54:00
9:33 AM,55.4,53.6,94,30.01,10.0,East,4.6,-,0.00,,Overcast,80,2013-09-15 14:33:00
9:54 AM,55.9,54.0,93,30.02,10.0,East,5.8,-,0.00,,Overcast,90,2013-09-15 14:54:00
10:36 AM,57.2,53.6,88,30.03,10.0,ENE,4.6,-,N/A,,Overcast,70,2013-09-15 15:36:00
10:54 AM,57.9,54.0,87,30.04,10.0,ENE,5.8,-,N/A,,Overcast,70,2013-09-15 15:54:00
11:54 AM,57.9,54.0,87,30.06,10.0,NNE,5.8,-,N/A,,Overcast,20,2013-09-15 16:54:00
12:54 PM,62.1,53.1,72,30.06,10.0,NNE,10.4,-,N/A,,Overcast,30,2013-09-15 17:54:00
1:54 PM,64.0,53.1,67,30.08,10.0,NNE,8.1,-,N/A,,Mostly Cloudy,20,2013-09-15 18:54:00
2:20 PM,64.4,53.6,68,30.08,10.0,North,9.2,-,N/A,,Mostly Cloudy,10,2013-09-15 19:20:00
2:54 PM,66.0,52.0,60,30.08,10.0,NE,6.9,-,N/A,,Mostly Cloudy,50,2013-09-15 19:54:00
3:54 PM,64.0,53.1,67,30.11,10.0,North,9.2,-,N/A,,Overcast,360,2013-09-15 20:54:00
4:54 PM,62.1,53.1,72,30.13,10.0,NNE,11.5,20.7,N/A,,Overcast,20,2013-09-15 21:54:00
5:44 PM,60.8,53.6,77,30.16,10.0,NE,11.5,20.7,N/A,,Overcast,40,2013-09-15 22:44:00
5:54 PM,61.0,52.0,72,30.17,10.0,NE,12.7,20.7,N/A,,Overcast,40,2013-09-15 22:54:00
6:24 PM,60.8,51.8,72,30.18,10.0,North,10.4,24.2,N/A,,Overcast,10,2013-09-15 23:24:00
6:54 PM,57.9,48.9,72,30.19,10.0,North,12.7,23.0,N/A,,Mostly Cloudy,10,2013-09-15 23:54:00
7:19 PM,57.2,50.0,77,30.20,10.0,North,12.7,19.6,N/A,,Mostly Cloudy,10,2013-09-16 00:19:00
7:54 PM,55.9,48.9,77,30.23,10.0,NE,8.1,18.4,N/A,,Overcast,40,2013-09-16 00:54:00
8:54 PM,55.0,46.0,72,30.25,10.0,NNE,11.5,-,N/A,,Overcast,20,2013-09-16 01:54:00
9:54 PM,52.0,43.0,71,30.27,10.0,NNE,9.2,-,N/A,,Overcast,30,2013-09-16 02:54:00
10:54 PM,51.1,42.1,71,30.30,10.0,NNE,5.8,-,N/A,,Overcast,30,2013-09-16 03:54:00
11:54 PM,48.0,39.9,74,30.32,10.0,NNE,8.1,-,N/A,,Mostly Cloudy,30,2013-09-16 04:54:00